Time,TemperatureF,DewpointF,PressureIn,WindDirection,WindDirectionDegrees,WindSpeedMPH,WindSpeedGustMPH,Humidity,HourlyPrecipIn,Conditions,Clouds,dailyrainin,SoftwareType,DateUTC
2013-07-20 00:01:00,67.7,61.3,29.70,North,355,0.0,0.0,80,0.00,,---,0.00,VWS V14.01,2013-07-20 04:01:00,
2013-07-20 00:02:00,67.6,61.6,29.70,North,355,0.0,0.0,81,0.00,,---,0.00,VWS V14.01,2013-07-20 04:02:00,
2013-07-20 00:07:00,67.2,61.2,29.69,North,355,0.0,1.0,81,0.00,,---,0.00,VWS V14.01,2013-07-20 04:07:00,
2013-07-20 00:12:00,66.8,60.8,29.69,North,355,0.0,0.0,81,0.00,,---,0.00,VWS V14.01,2013-07-20 04:12:00,
2013-07-20 00:17:00,66.6,60.9,29.70,North,355,0.0,1.0,82,0.00,,---,0.00,VWS V14.01,2013-07-20 04:17:00,
2013-07-20 00:23:00,66.5,61.5,29.69,North,355,0.0,0.0,84,0.00,,---,0.00,VWS V14.01,2013-07-20 04:23:00,
2013-07-20 00:28:00,66.2,61.6,29.69,North,355,0.0,0.0,85,0.00,,---,0.00,VWS V14.01,2013-07-20 04:28:00,
2013-07-20 00:33:00,66.0,61.4,29.69,North,355,0.0,1.0,85,0.00,,---,0.00,VWS V14.01,2013-07-20 04:33:00,
2013-07-20 00:38:00,65.9,61.9,29.69,North,355,0.0,0.0,87,0.00,,---,0.00,VWS V14.01,2013-07-20 04:38:00,
2013-07-20 00:43:00,65.8,61.8,29.69,North,355,0.0,0.0,87,0.00,,---,0.00,VWS V14.01,2013-07-20 04:43:00,
2013-07-20 00:48:00,65.6,61.6,29.69,North,355,1.0,2.0,87,0.00,,---,0.00,VWS V14.01,2013-07-20 04:48:00,
2013-07-20 00:53:00,65.5,61.9,29.69,North,355,0.0,0.0,88,0.00,,---,0.00,VWS V14.01,2013-07-20 04:53:00,
2013-07-20 00:58:00,65.4,61.8,29.69,North,355,0.0,1.0,88,0.00,,---,0.00,VWS V14.01,2013-07-20 04:58:00,
2013-07-20 01:03:00,65.2,61.6,29.69,West,279,1.0,3.0,88,0.00,,---,0.00,VWS V14.01,2013-07-20 05:03:00,
2013-07-20 01:08:00,65.2,61.2,29.69,West,279,0.0,1.0,87,0.00,,---,0.00,VWS V14.01,2013-07-20 05:08:00,
2013-07-20 01:13:00,65.2,60.9,29.70,West,263,0.0,1.0,86,0.00,,---,0.00,VWS V14.01,2013-07-20 05:13:00,
2013-07-20 01:18:00,65.0,60.7,29.70,West,263,0.0,0.0,86,0.00,,---,0.00,VWS V14.01,2013-07-20 05:18:00,
2013-07-20 01:23:00,64.9,60.9,29.70,WSW,257,0.0,1.0,87,0.00,,---,0.00,VWS V14.01,2013-07-20 05:23:00,
2013-07-20 01:28:00,64.8,60.8,29.70,WSW,257,0.0,0.0,87,0.00,,---,0.00,VWS V14.01,2013-07-20 05:28:00,
2013-07-20 01:33:00,64.6,60.7,29.70,WSW,257,0.0,1.0,87,0.00,,---,0.00,VWS V14.01,2013-07-20 05:33:00,
2013-07-20 01:38:00,64.4,60.5,29.71,WSW,256,0.0,0.0,87,0.00,,---,0.00,VWS V14.01,2013-07-20 05:38:00,
2013-07-20 01:43:00,64.3,60.3,29.71,WSW,257,1.0,1.0,87,0.00,,---,0.00,VWS V14.01,2013-07-20 05:43:00,
2013-07-20 01:48:00,64.1,60.5,29.71,WSW,242,0.0,1.0,88,0.00,,---,0.00,VWS V14.01,2013-07-20 05:48:00,
2013-07-20 01:53:00,64.1,60.5,29.71,SW,218,0.0,1.0,88,0.00,,---,0.00,VWS V14.01,2013-07-20 05:53:00,
2013-07-20 01:58:00,64.0,60.7,29.71,SW,219,1.0,2.0,89,0.00,,---,0.00,VWS V14.01,2013-07-20 05:58:00,
2013-07-20 02:03:00,63.9,60.6,29.70,WSW,252,2.0,2.0,89,0.00,,---,0.00,VWS V14.01,2013-07-20 06:03:00,
2013-07-20 02:08:00,63.8,60.5,29.70,SW,225,2.0,2.0,89,0.00,,---,0.00,VWS V14.01,2013-07-20 06:08:00,
2013-07-20 02:13:00,63.6,60.3,29.70,SW,217,0.0,2.0,89,0.00,,---,0.00,VWS V14.01,2013-07-20 06:13:00,
2013-07-20 02:18:00,63.4,60.1,29.70,SW,217,0.0,2.0,89,0.00,,---,0.00,VWS V14.01,2013-07-20 06:18:00,
2013-07-20 02:23:00,63.2,59.9,29.70,SW,229,0.0,3.0,89,0.00,,---,0.00,VWS V14.01,2013-07-20 06:23:00,
2013-07-20 02:28:00,63.1,59.8,29.70,SW,215,0.0,2.0,89,0.00,,---,0.00,VWS V14.01,2013-07-20 06:28:00,
2013-07-20 02:33:00,62.9,59.3,29.70,WSW,240,0.0,2.0,88,0.00,,---,0.00,VWS V14.01,2013-07-20 06:33:00,
2013-07-20 02:38:00,62.8,59.2,29.70,SW,229,3.0,4.0,88,0.00,,---,0.00,VWS V14.01,2013-07-20 06:38:00,
2013-07-20 02:43:00,62.9,59.3,29.70,SW,230,2.0,4.0,88,0.00,,---,0.00,VWS V14.01,2013-07-20 06:43:00,
2013-07-20 02:48:00,62.9,59.3,29.71,SW,222,1.0,3.0,88,0.00,,---,0.00,VWS V14.01,2013-07-20 06:48:00,
2013-07-20 02:53:00,62.8,59.2,29.71,SW,214,1.0,3.0,88,0.00,,---,0.00,VWS V14.01,2013-07-20 06:53:00,
2013-07-20 02:58:00,62.8,59.2,29.70,SW,219,0.0,1.0,88,0.00,,---,0.00,VWS V14.01,2013-07-20 06:58:00,
2013-07-20 03:03:00,62.8,59.2,29.70,SW,219,0.0,1.0,88,0.00,,---,0.00,VWS V14.01,2013-07-20 07:03:00,
2013-07-20 03:08:00,62.8,59.5,29.70,SW,220,2.0,3.0,89,0.00,,---,0.00,VWS V14.01,2013-07-20 07:08:00,
2013-07-20 03:13:00,62.9,59.6,29.70,SW,220,0.0,2.0,89,0.00,,---,0.00,VWS V14.01,2013-07-20 07:13:00,
2013-07-20 03:18:00,62.9,59.6,29.70,WSW,242,0.0,3.0,89,0.00,,---,0.00,VWS V14.01,2013-07-20 07:18:00,
2013-07-20 03:23:00,62.9,59.6,29.70,SW,236,2.0,4.0,89,0.00,,---,0.00,VWS V14.01,2013-07-20 07:23:00,
2013-07-20 03:28:00,63.1,59.8,29.70,SW,233,0.0,3.0,89,0.00,,---,0.00,VWS V14.01,2013-07-20 07:28:00,
2013-07-20 03:33:00,63.0,59.7,29.70,SW,234,3.0,3.0,89,0.00,,---,0.00,VWS V14.01,2013-07-20 07:33:00,
2013-07-20 03:38:00,63.1,59.8,29.70,WSW,238,1.0,3.0,89,0.00,,---,0.00,VWS V14.01,2013-07-20 07:38:00,
2013-07-20 03:43:00,63.1,59.8,29.70,WSW,237,0.0,0.0,89,0.00,,---,0.00,VWS V14.01,2013-07-20 07:43:00,
2013-07-20 03:49:00,63.0,59.7,29.70,WSW,238,0.0,2.0,89,0.00,,---,0.00,VWS V14.01,2013-07-20 07:49:00,
2013-07-20 03:54:00,63.1,59.8,29.70,WSW,238,0.0,3.0,89,0.00,,---,0.00,VWS V14.01,2013-07-20 07:54:00,
2013-07-20 03:59:00,63.0,59.7,29.70,WSW,238,0.0,2.0,89,0.00,,---,0.00,VWS V14.01,2013-07-20 07:59:00,
2013-07-20 04:04:00,62.9,59.6,29.70,WSW,237,0.0,2.0,89,0.00,,---,0.00,VWS V14.01,2013-07-20 08:04:00,
2013-07-20 04:09:00,62.8,59.5,29.70,WSW,238,0.0,1.0,89,0.00,,---,0.00,VWS V14.01,2013-07-20 08:09:00,
2013-07-20 04:14:00,62.6,59.6,29.70,WSW,238,0.0,2.0,90,0.00,,---,0.00,VWS V14.01,2013-07-20 08:14:00,
2013-07-20 04:19:00,62.5,59.5,29.70,WSW,238,0.0,2.0,90,0.00,,---,0.00,VWS V14.01,2013-07-20 08:19:00,
2013-07-20 04:24:00,62.5,59.5,29.70,WSW,237,0.0,3.0,90,0.00,,---,0.00,VWS V14.01,2013-07-20 08:24:00,
2013-07-20 04:29:00,62.5,59.5,29.70,WSW,237,3.0,3.0,90,0.00,,---,0.00,VWS V14.01,2013-07-20 08:29:00,
2013-07-20 04:34:00,62.5,59.5,29.70,WSW,237,1.0,3.0,90,0.00,,---,0.00,VWS V14.01,2013-07-20 08:34:00,
2013-07-20 04:39:00,62.7,59.7,29.70,WSW,238,2.0,2.0,90,0.00,,---,0.00,VWS V14.01,2013-07-20 08:39:00,
2013-07-20 04:44:00,62.7,59.7,29.70,WSW,237,0.0,5.0,90,0.00,,---,0.00,VWS V14.01,2013-07-20 08:44:00,
2013-07-20 04:49:00,62.9,59.9,29.70,WSW,238,2.0,4.0,90,0.00,,---,0.00,VWS V14.01,2013-07-20 08:49:00,
2013-07-20 04:54:00,63.1,60.1,29.70,SW,235,2.0,5.0,90,0.00,,---,0.00,VWS V14.01,2013-07-20 08:54:00,
2013-07-20 04:59:00,63.3,60.0,29.70,WSW,248,0.0,9.0,89,0.00,,---,0.00,VWS V14.01,2013-07-20 08:59:00,
2013-07-20 05:04:00,63.4,60.1,29.70,SSW,213,0.0,4.0,89,0.00,,---,0.00,VWS V14.01,2013-07-20 09:04:00,
2013-07-20 05:09:00,63.6,60.0,29.70,WSW,248,3.0,5.0,88,0.00,,---,0.00,VWS V14.01,2013-07-20 09:09:00,
2013-07-20 05:14:00,63.7,60.1,29.70,SW,223,1.0,5.0,88,0.00,,---,0.00,VWS V14.01,2013-07-20 09:14:00,
2013-07-20 05:19:00,63.8,60.2,29.70,West,263,2.0,3.0,88,0.00,,---,0.00,VWS V14.01,2013-07-20 09:19:00,
2013-07-20 05:24:00,63.9,60.3,29.70,SW,234,2.0,4.0,88,0.00,,---,0.00,VWS V14.01,2013-07-20 09:24:00,
2013-07-20 05:29:00,64.0,60.1,29.70,SW,226,1.0,4.0,87,0.00,,---,0.00,VWS V14.01,2013-07-20 09:29:00,
2013-07-20 05:34:00,64.0,60.1,29.70,SW,225,2.0,3.0,87,0.00,,---,0.00,VWS V14.01,2013-07-20 09:34:00,
2013-07-20 05:39:00,63.9,60.0,29.70,WSW,253,0.0,2.0,87,0.00,,---,0.00,VWS V14.01,2013-07-20 09:39:00,
2013-07-20 05:44:00,63.8,60.2,29.70,WSW,252,2.0,4.0,88,0.00,,---,0.00,VWS V14.01,2013-07-20 09:44:00,
2013-07-20 05:49:00,63.7,60.1,29.71,WSW,250,3.0,5.0,88,0.00,,---,0.00,VWS V14.01,2013-07-20 09:49:00,
2013-07-20 05:54:00,63.6,60.0,29.71,WSW,247,4.0,5.0,88,0.00,,---,0.00,VWS V14.01,2013-07-20 09:54:00,
2013-07-20 05:59:00,63.6,60.0,29.71,WSW,249,4.0,6.0,88,0.00,,---,0.00,VWS V14.01,2013-07-20 09:59:00,
2013-07-20 06:04:00,63.8,60.2,29.72,WSW,250,4.0,6.0,88,0.00,,---,0.00,VWS V14.01,2013-07-20 10:04:00,
2013-07-20 06:09:00,64.0,60.4,29.72,West,263,3.0,5.0,88,0.00,,---,0.00,VWS V14.01,2013-07-20 10:09:00,
2013-07-20 06:15:00,64.0,60.4,29.72,WSW,253,5.0,6.0,88,0.00,,---,0.00,VWS V14.01,2013-07-20 10:15:00,
2013-07-20 06:20:00,65.0,61.4,29.72,West,272,6.0,14.0,88,0.00,,---,0.00,VWS V14.01,2013-07-20 10:20:00,
2013-07-20 06:25:00,65.3,61.3,29.72,West,262,6.0,10.0,87,0.00,,---,0.00,VWS V14.01,2013-07-20 10:25:00,
2013-07-20 06:30:00,65.5,61.5,29.72,WSW,255,10.0,13.0,87,0.00,,---,0.00,VWS V14.01,2013-07-20 10:30:00,
2013-07-20 06:35:00,66.2,62.2,29.72,West,261,7.0,11.0,87,0.00,,---,0.00,VWS V14.01,2013-07-20 10:35:00,
2013-07-20 06:40:00,66.7,62.0,29.73,WSW,256,7.0,12.0,85,0.00,,---,0.00,VWS V14.01,2013-07-20 10:40:00,
2013-07-20 06:45:00,66.8,61.8,29.73,West,260,5.0,10.0,84,0.00,,---,0.00,VWS V14.01,2013-07-20 10:45:00,
2013-07-20 06:50:00,66.8,61.8,29.73,North,355,0.0,8.0,84,0.00,,---,0.00,VWS V14.01,2013-07-20 10:50:00,
2013-07-20 06:55:00,66.7,61.0,29.73,NNE,12,3.0,10.0,82,0.00,,---,0.00,VWS V14.01,2013-07-20 10:55:00,
2013-07-20 07:00:00,66.6,60.2,29.73,West,280,4.0,12.0,80,0.00,,---,0.00,VWS V14.01,2013-07-20 11:00:00,
2013-07-20 07:05:00,66.5,60.2,29.74,WSW,249,4.0,7.0,80,0.00,,---,0.00,VWS V14.01,2013-07-20 11:05:00,
2013-07-20 07:10:00,66.4,59.7,29.74,WSW,248,6.0,6.0,79,0.00,,---,0.00,VWS V14.01,2013-07-20 11:10:00,
2013-07-20 07:15:00,66.4,59.7,29.74,West,259,4.0,7.0,79,0.00,,---,0.00,VWS V14.01,2013-07-20 11:15:00,
2013-07-20 07:20:00,66.5,60.2,29.74,WSW,237,2.0,9.0,80,0.00,,---,0.00,VWS V14.01,2013-07-20 11:20:00,
2013-07-20 07:25:00,66.5,60.2,29.74,West,274,2.0,7.0,80,0.00,,---,0.00,VWS V14.01,2013-07-20 11:25:00,
2013-07-20 07:30:00,66.6,60.2,29.74,WNW,291,4.0,6.0,80,0.00,,---,0.00,VWS V14.01,2013-07-20 11:30:00,
2013-07-20 07:35:00,66.5,60.2,29.74,WNW,284,1.0,7.0,80,0.00,,---,0.00,VWS V14.01,2013-07-20 11:35:00,
2013-07-20 07:40:00,66.5,59.8,29.74,WNW,283,3.0,11.0,79,0.00,,---,0.00,VWS V14.01,2013-07-20 11:40:00,
2013-07-20 07:45:00,66.4,60.0,29.75,NNE,15,0.0,4.0,80,0.00,,---,0.00,VWS V14.01,2013-07-20 11:45:00,
2013-07-20 07:50:00,66.4,59.7,29.75,NE,35,1.0,5.0,79,0.00,,---,0.00,VWS V14.01,2013-07-20 11:50:00,
2013-07-20 07:55:00,66.2,59.2,29.76,NNE,30,0.0,5.0,78,0.00,,---,0.00,VWS V14.01,2013-07-20 11:55:00,
2013-07-20 08:00:00,66.1,59.0,29.76,NNE,17,4.0,8.0,78,0.00,,---,0.00,VWS V14.01,2013-07-20 12:00:00,
2013-07-20 08:05:00,66.1,59.4,29.76,NW,323,0.0,6.0,79,0.00,,---,0.00,VWS V14.01,2013-07-20 12:05:00,
2013-07-20 08:10:00,66.2,59.5,29.77,NNE,28,1.0,7.0,79,0.00,,---,0.00,VWS V14.01,2013-07-20 12:10:00,
2013-07-20 08:15:00,66.5,60.2,29.77,NNE,26,3.0,7.0,80,0.00,,---,0.00,VWS V14.01,2013-07-20 12:15:00,
2013-07-20 08:20:00,66.9,60.2,29.77,NNE,12,5.0,5.0,79,0.00,,---,0.00,VWS V14.01,2013-07-20 12:20:00,
2013-07-20 08:25:00,67.0,59.9,29.77,West,271,4.0,11.0,78,0.00,,---,0.00,VWS V14.01,2013-07-20 12:25:00,
2013-07-20 08:30:00,66.9,59.8,29.77,North,349,3.0,12.0,78,0.00,,---,0.00,VWS V14.01,2013-07-20 12:30:00,
2013-07-20 08:35:00,67.0,59.9,29.77,WSW,249,4.0,10.0,78,0.00,,---,0.00,VWS V14.01,2013-07-20 12:35:00,
2013-07-20 08:40:00,67.0,59.6,29.78,North,11,1.0,1.0,77,0.00,,---,0.00,VWS V14.01,2013-07-20 12:40:00,
2013-07-20 08:45:00,67.3,59.5,29.78,NW,311,5.0,5.0,76,0.00,,---,0.00,VWS V14.01,2013-07-20 12:45:00,
2013-07-20 08:50:00,67.2,59.8,29.79,North,360,0.0,1.0,77,0.00,,---,0.00,VWS V14.01,2013-07-20 12:50:00,
2013-07-20 08:55:00,67.0,59.6,29.79,North,355,3.0,10.0,77,0.00,,---,0.00,VWS V14.01,2013-07-20 12:55:00,
2013-07-20 09:00:00,66.9,59.5,29.79,NNE,25,2.0,2.0,77,0.00,,---,0.00,VWS V14.01,2013-07-20 13:00:00,
2013-07-20 09:05:00,66.7,58.2,29.80,North,10,6.0,11.0,74,0.00,,---,0.00,VWS V14.01,2013-07-20 13:05:00,
2013-07-20 09:10:00,66.7,58.2,29.80,ESE,105,4.0,4.0,74,0.00,,---,0.00,VWS V14.01,2013-07-20 13:10:00,
2013-07-20 09:15:00,66.7,57.4,29.80,NNE,18,6.0,10.0,72,0.00,,---,0.00,VWS V14.01,2013-07-20 13:15:00,
2013-07-20 09:20:00,66.9,57.2,29.80,North,355,4.0,5.0,71,0.00,,---,0.00,VWS V14.01,2013-07-20 13:20:00,
2013-07-20 09:25:00,66.8,57.1,29.80,NNW,329,7.0,13.0,71,0.00,,---,0.00,VWS V14.01,2013-07-20 13:25:00,
2013-07-20 09:30:00,66.9,56.4,29.81,North,360,13.0,13.0,69,0.00,,---,0.00,VWS V14.01,2013-07-20 13:30:00,
2013-07-20 09:35:00,66.8,55.1,29.81,NNE,15,6.0,7.0,66,0.00,,---,0.00,VWS V14.01,2013-07-20 13:35:00,
2013-07-20 09:40:00,66.9,56.4,29.81,North,9,9.0,9.0,69,0.00,,---,0.00,VWS V14.01,2013-07-20 13:40:00,
2013-07-20 09:45:00,66.8,56.7,29.81,North,9,2.0,8.0,70,0.00,,---,0.00,VWS V14.01,2013-07-20 13:45:00,
2013-07-20 09:51:00,66.9,56.0,29.82,North,360,6.0,11.0,68,0.00,,---,0.00,VWS V14.01,2013-07-20 13:51:00,
2013-07-20 09:56:00,66.6,55.3,29.82,NNE,14,3.0,11.0,67,0.00,,---,0.00,VWS V14.01,2013-07-20 13:56:00,
2013-07-20 10:01:00,66.6,55.7,29.82,NNE,30,4.0,11.0,68,0.00,,---,0.00,VWS V14.01,2013-07-20 14:01:00,
2013-07-20 10:05:00,66.5,56.4,29.82,NNE,14,10.0,10.0,70,0.00,,---,0.00,VWS V14.01,2013-07-20 14:05:00,
2013-07-20 10:10:00,66.7,56.6,29.82,NNE,25,7.0,7.0,70,0.00,,---,0.00,VWS V14.01,2013-07-20 14:10:00,
2013-07-20 10:16:00,66.6,55.3,29.82,NNE,15,10.0,10.0,67,0.00,,---,0.00,VWS V14.01,2013-07-20 14:16:00,
2013-07-20 10:21:00,66.6,56.5,29.82,NNW,343,3.0,10.0,70,0.00,,---,0.00,VWS V14.01,2013-07-20 14:21:00,
2013-07-20 10:26:00,66.6,56.5,29.82,NNE,19,2.0,5.0,70,0.00,,---,0.00,VWS V14.01,2013-07-20 14:26:00,
2013-07-20 10:31:00,66.6,56.1,29.82,West,265,7.0,7.0,69,0.00,,---,0.00,VWS V14.01,2013-07-20 14:31:00,
2013-07-20 10:36:00,66.8,55.9,29.83,NNE,16,5.0,11.0,68,0.00,,---,0.00,VWS V14.01,2013-07-20 14:36:00,
2013-07-20 10:41:00,66.5,55.6,29.83,North,10,4.0,7.0,68,0.00,,---,0.00,VWS V14.01,2013-07-20 14:41:00,
2013-07-20 10:46:00,66.6,56.5,29.83,North,360,6.0,6.0,70,0.00,,---,0.00,VWS V14.01,2013-07-20 14:46:00,
2013-07-20 10:51:00,66.7,55.8,29.83,NE,49,5.0,9.0,68,0.00,,---,0.00,VWS V14.01,2013-07-20 14:51:00,
2013-07-20 10:56:00,66.9,56.4,29.84,NNE,19,0.0,5.0,69,0.00,,---,0.00,VWS V14.01,2013-07-20 14:56:00,
2013-07-20 11:01:00,67.1,55.8,29.84,NNE,19,5.0,9.0,67,0.00,,---,0.00,VWS V14.01,2013-07-20 15:01:00,
2013-07-20 11:06:00,66.7,55.0,29.84,WNW,291,2.0,13.0,66,0.00,,---,0.00,VWS V14.01,2013-07-20 15:06:00,
2013-07-20 11:11:00,66.0,53.5,29.85,West,276,1.0,5.0,64,0.00,,---,0.00,VWS V14.01,2013-07-20 15:11:00,
2013-07-20 11:16:00,66.5,53.5,29.85,NNW,338,2.0,13.0,63,0.00,,---,0.00,VWS V14.01,2013-07-20 15:16:00,
2013-07-20 11:21:00,66.5,53.5,29.85,North,9,4.0,10.0,63,0.00,,---,0.00,VWS V14.01,2013-07-20 15:21:00,
2013-07-20 11:26:00,66.6,52.3,29.85,NNE,13,6.0,12.0,60,0.00,,---,0.00,VWS V14.01,2013-07-20 15:26:00,
2013-07-20 11:31:00,66.5,51.8,29.85,North,5,3.0,7.0,59,0.00,,---,0.00,VWS V14.01,2013-07-20 15:31:00,
2013-07-20 11:36:00,66.6,53.2,29.85,North,360,3.0,7.0,62,0.00,,---,0.00,VWS V14.01,2013-07-20 15:36:00,
2013-07-20 11:41:00,66.8,53.8,29.86,NNE,13,6.0,9.0,63,0.00,,---,0.00,VWS V14.01,2013-07-20 15:41:00,
2013-07-20 11:46:00,66.8,55.1,29.86,North,11,1.0,6.0,66,0.00,,---,0.00,VWS V14.01,2013-07-20 15:46:00,
2013-07-20 11:51:00,66.8,54.2,29.86,WSW,251,6.0,14.0,64,0.00,,---,0.00,VWS V14.01,2013-07-20 15:51:00,
2013-07-20 11:56:00,66.3,53.3,29.86,NNW,337,9.0,14.0,63,0.00,,---,0.00,VWS V14.01,2013-07-20 15:56:00,
2013-07-20 12:01:00,66.3,54.2,29.86,WNW,295,2.0,5.0,65,0.00,,---,0.00,VWS V14.01,2013-07-20 16:01:00,
2013-07-20 12:06:00,66.7,54.6,29.86,North,360,5.0,5.0,65,0.00,,---,0.00,VWS V14.01,2013-07-20 16:06:00,
2013-07-20 12:11:00,66.9,54.8,29.87,North,9,7.0,13.0,65,0.00,,---,0.00,VWS V14.01,2013-07-20 16:11:00,
2013-07-20 12:16:00,67.1,54.5,29.86,NNE,15,1.0,4.0,64,0.00,,---,0.00,VWS V14.01,2013-07-20 16:16:00,
2013-07-20 12:21:00,67.0,53.1,29.87,North,360,6.0,11.0,61,0.00,,---,0.00,VWS V14.01,2013-07-20 16:21:00,
2013-07-20 12:26:00,66.2,52.8,29.87,North,5,9.0,11.0,62,0.00,,---,0.00,VWS V14.01,2013-07-20 16:26:00,
2013-07-20 12:31:00,66.6,54.1,29.87,North,5,8.0,10.0,64,0.00,,---,0.00,VWS V14.01,2013-07-20 16:31:00,
2013-07-20 12:36:00,66.1,51.8,29.87,North,360,10.0,12.0,60,0.00,,---,0.00,VWS V14.01,2013-07-20 16:36:00,
2013-07-20 12:41:00,66.1,52.7,29.88,WSW,257,4.0,13.0,62,0.00,,---,0.00,VWS V14.01,2013-07-20 16:41:00,
2013-07-20 12:46:00,66.2,52.4,29.88,North,9,13.0,13.0,61,0.00,,---,0.00,VWS V14.01,2013-07-20 16:46:00,
2013-07-20 12:51:00,66.3,52.9,29.88,North,5,5.0,9.0,62,0.00,,---,0.00,VWS V14.01,2013-07-20 16:51:00,
2013-07-20 12:56:00,66.3,52.5,29.88,North,350,3.0,10.0,61,0.00,,---,0.00,VWS V14.01,2013-07-20 16:56:00,
2013-07-20 13:01:00,66.1,52.7,29.88,North,10,2.0,7.0,62,0.00,,---,0.00,VWS V14.01,2013-07-20 17:01:00,
2013-07-20 13:06:00,66.3,53.8,29.87,North,5,3.0,6.0,64,0.00,,---,0.00,VWS V14.01,2013-07-20 17:06:00,
2013-07-20 13:11:00,66.5,53.5,29.87,North,351,7.0,14.0,63,0.00,,---,0.00,VWS V14.01,2013-07-20 17:11:00,
2013-07-20 13:16:00,66.7,53.7,29.88,NNE,24,13.0,14.0,63,0.00,,---,0.00,VWS V14.01,2013-07-20 17:16:00,
2013-07-20 13:21:00,66.7,52.8,29.88,NNE,21,11.0,11.0,61,0.00,,---,0.00,VWS V14.01,2013-07-20 17:21:00,
2013-07-20 13:26:00,66.9,53.0,29.88,North,10,10.0,10.0,61,0.00,,---,0.00,VWS V14.01,2013-07-20 17:26:00,
2013-07-20 13:31:00,66.7,51.9,29.88,NNW,334,1.0,9.0,59,0.00,,---,0.00,VWS V14.01,2013-07-20 17:31:00,
2013-07-20 13:36:00,66.5,52.2,29.88,North,360,6.0,10.0,60,0.00,,---,0.00,VWS V14.01,2013-07-20 17:36:00,
2013-07-20 13:41:00,66.3,51.6,29.89,NNE,17,2.0,7.0,59,0.00,,---,0.00,VWS V14.01,2013-07-20 17:41:00,
2013-07-20 13:46:00,66.4,52.6,29.89,West,271,3.0,11.0,61,0.00,,---,0.00,VWS V14.01,2013-07-20 17:46:00,
2013-07-20 13:51:00,66.8,51.6,29.89,North,360,12.0,12.0,58,0.00,,---,0.00,VWS V14.01,2013-07-20 17:51:00,
2013-07-20 13:56:00,67.0,53.6,29.88,North,9,4.0,10.0,62,0.00,,---,0.00,VWS V14.01,2013-07-20 17:56:00,
2013-07-20 14:02:00,66.8,52.5,29.89,NNW,338,2.0,13.0,60,0.00,,---,0.00,VWS V14.01,2013-07-20 18:02:00,
2013-07-20 14:07:00,67.0,51.3,29.89,North,9,6.0,16.0,57,0.00,,---,0.00,VWS V14.01,2013-07-20 18:07:00,
2013-07-20 14:12:00,67.1,51.8,29.88,NNE,27,4.0,7.0,58,0.00,,---,0.00,VWS V14.01,2013-07-20 18:12:00,
2013-07-20 14:17:00,66.9,51.7,29.88,NNE,13,9.0,15.0,58,0.00,,---,0.00,VWS V14.01,2013-07-20 18:17:00,
2013-07-20 14:22:00,66.8,50.1,29.89,North,360,7.0,16.0,55,0.00,,---,0.00,VWS V14.01,2013-07-20 18:22:00,
2013-07-20 14:27:00,66.7,50.5,29.89,North,350,0.0,10.0,56,0.00,,---,0.00,VWS V14.01,2013-07-20 18:27:00,
2013-07-20 14:32:00,66.8,49.6,29.89,NNW,346,1.0,12.0,54,0.00,,---,0.00,VWS V14.01,2013-07-20 18:32:00,
2013-07-20 14:37:00,66.6,50.0,29.89,North,9,3.0,12.0,55,0.00,,---,0.00,VWS V14.01,2013-07-20 18:37:00,
2013-07-20 14:42:00,66.7,49.5,29.89,WNW,286,3.0,6.0,54,0.00,,---,0.00,VWS V14.01,2013-07-20 18:42:00,
2013-07-20 14:47:00,66.7,49.0,29.89,WNW,284,2.0,10.0,53,0.00,,---,0.00,VWS V14.01,2013-07-20 18:47:00,
2013-07-20 14:52:00,66.8,49.6,29.88,North,5,5.0,12.0,54,0.00,,---,0.00,VWS V14.01,2013-07-20 18:52:00,
2013-07-20 14:57:00,67.0,50.3,29.88,WSW,249,3.0,9.0,55,0.00,,---,0.00,VWS V14.01,2013-07-20 18:57:00,
2013-07-20 15:02:00,67.3,48.6,29.88,WNW,297,4.0,7.0,51,0.00,,---,0.00,VWS V14.01,2013-07-20 19:02:00,
2013-07-20 15:08:00,67.3,48.0,29.88,North,11,0.0,10.0,50,0.00,,---,0.00,VWS V14.01,2013-07-20 19:08:00,
2013-07-20 15:13:00,67.2,48.5,29.88,NW,307,1.0,13.0,51,0.00,,---,0.00,VWS V14.01,2013-07-20 19:13:00,
2013-07-20 15:18:00,67.5,49.3,29.88,North,360,11.0,11.0,52,0.00,,---,0.00,VWS V14.01,2013-07-20 19:18:00,
2013-07-20 15:23:00,67.1,51.4,29.88,NNE,17,14.0,15.0,57,0.00,,---,0.00,VWS V14.01,2013-07-20 19:23:00,
2013-07-20 15:28:00,67.2,50.0,29.88,NW,313,6.0,12.0,54,0.00,,---,0.00,VWS V14.01,2013-07-20 19:28:00,
2013-07-20 15:33:00,67.0,50.3,29.88,North,9,10.0,14.0,55,0.00,,---,0.00,VWS V14.01,2013-07-20 19:33:00,
2013-07-20 15:38:00,67.2,50.5,29.88,WNW,298,2.0,10.0,55,0.00,,---,0.00,VWS V14.01,2013-07-20 19:38:00,
2013-07-20 15:43:00,67.3,50.1,29.89,North,349,3.0,9.0,54,0.00,,---,0.00,VWS V14.01,2013-07-20 19:43:00,
2013-07-20 15:48:00,67.0,51.3,29.89,NNE,19,12.0,16.0,57,0.00,,---,0.00,VWS V14.01,2013-07-20 19:48:00,
2013-07-20 15:53:00,67.1,50.4,29.89,North,11,6.0,16.0,55,0.00,,---,0.00,VWS V14.01,2013-07-20 19:53:00,
2013-07-20 15:59:00,66.8,50.6,29.89,North,355,3.0,14.0,56,0.00,,---,0.00,VWS V14.01,2013-07-20 19:59:00,
2013-07-20 16:04:00,66.8,51.6,29.89,North,11,4.0,12.0,58,0.00,,---,0.00,VWS V14.01,2013-07-20 20:04:00,
2013-07-20 16:09:00,67.4,51.7,29.89,NNE,22,2.0,13.0,57,0.00,,---,0.00,VWS V14.01,2013-07-20 20:09:00,
2013-07-20 16:14:00,67.6,51.8,29.89,WSW,250,2.0,7.0,57,0.00,,---,0.00,VWS V14.01,2013-07-20 20:14:00,
2013-07-20 16:19:00,67.9,50.2,29.89,NNW,344,4.0,14.0,53,0.00,,---,0.00,VWS V14.01,2013-07-20 20:19:00,
2013-07-20 16:24:00,68.0,50.8,29.89,North,355,11.0,11.0,54,0.00,,---,0.00,VWS V14.01,2013-07-20 20:24:00,
2013-07-20 16:30:00,67.8,51.1,29.89,NE,44,3.0,13.0,55,0.00,,---,0.00,VWS V14.01,2013-07-20 20:30:00,
2013-07-20 16:35:00,67.3,50.6,29.89,North,360,14.0,14.0,55,0.00,,---,0.00,VWS V14.01,2013-07-20 20:35:00,
2013-07-20 16:40:00,67.0,48.8,29.89,NNW,336,3.0,14.0,52,0.00,,---,0.00,VWS V14.01,2013-07-20 20:40:00,
2013-07-20 16:45:00,66.6,48.4,29.90,NNE,23,10.0,12.0,52,0.00,,---,0.00,VWS V14.01,2013-07-20 20:45:00,
2013-07-20 16:50:00,66.4,48.8,29.90,North,360,7.0,16.0,53,0.00,,---,0.00,VWS V14.01,2013-07-20 20:50:00,
2013-07-20 16:55:00,66.6,49.5,29.90,SW,230,3.0,11.0,54,0.00,,---,0.00,VWS V14.01,2013-07-20 20:55:00,
2013-07-20 17:01:00,66.8,48.6,29.90,North,9,9.0,14.0,52,0.00,,---,0.00,VWS V14.01,2013-07-20 21:01:00,
2013-07-20 17:06:00,66.8,49.6,29.90,ENE,69,2.0,9.0,54,0.00,,---,0.00,VWS V14.01,2013-07-20 21:06:00,
2013-07-20 17:12:00,67.2,49.0,29.90,NNW,348,1.0,11.0,52,0.00,,---,0.00,VWS V14.01,2013-07-20 21:12:00,
2013-07-20 17:17:00,67.0,49.3,29.89,North,11,6.0,11.0,53,0.00,,---,0.00,VWS V14.01,2013-07-20 21:17:00,
2013-07-20 17:22:00,66.6,48.4,29.89,North,355,10.0,11.0,52,0.00,,---,0.00,VWS V14.01,2013-07-20 21:22:00,
2013-07-20 17:27:00,66.5,49.4,29.89,NE,45,3.0,13.0,54,0.00,,---,0.00,VWS V14.01,2013-07-20 21:27:00,
2013-07-20 17:32:00,66.6,48.4,29.89,North,360,6.0,13.0,52,0.00,,---,0.00,VWS V14.01,2013-07-20 21:32:00,
2013-07-20 17:38:00,66.6,49.5,29.89,North,9,10.0,15.0,54,0.00,,---,0.00,VWS V14.01,2013-07-20 21:38:00,
2013-07-20 17:43:00,66.6,49.0,29.89,NNE,13,2.0,13.0,53,0.00,,---,0.00,VWS V14.01,2013-07-20 21:43:00,
2013-07-20 17:48:00,66.5,48.9,29.89,North,11,6.0,17.0,53,0.00,,---,0.00,VWS V14.01,2013-07-20 21:48:00,
2013-07-20 17:53:00,66.4,47.7,29.89,North,5,2.0,12.0,51,0.00,,---,0.00,VWS V14.01,2013-07-20 21:53:00,
2013-07-20 17:58:00,66.4,48.8,29.90,NNE,15,9.0,17.0,53,0.00,,---,0.00,VWS V14.01,2013-07-20 21:58:00,
2013-07-20 18:04:00,66.6,50.0,29.90,North,360,4.0,13.0,55,0.00,,---,0.00,VWS V14.01,2013-07-20 22:04:00,
2013-07-20 18:09:00,66.3,49.2,29.90,North,5,7.0,16.0,54,0.00,,---,0.00,VWS V14.01,2013-07-20 22:09:00,
2013-07-20 18:14:00,66.3,48.2,29.90,NNE,14,5.0,15.0,52,0.00,,---,0.00,VWS V14.01,2013-07-20 22:14:00,
2013-07-20 18:19:00,66.3,48.2,29.90,North,350,10.0,12.0,52,0.00,,---,0.00,VWS V14.01,2013-07-20 22:19:00,
2013-07-20 18:24:00,66.0,47.9,29.90,NNE,32,2.0,12.0,52,0.00,,---,0.00,VWS V14.01,2013-07-20 22:24:00,
2013-07-20 18:29:00,65.9,47.3,29.90,North,9,6.0,14.0,51,0.00,,---,0.00,VWS V14.01,2013-07-20 22:29:00,
2013-07-20 18:35:00,65.9,47.3,29.89,NNW,346,4.0,13.0,51,0.00,,---,0.00,VWS V14.01,2013-07-20 22:35:00,
2013-07-20 18:40:00,66.2,49.1,29.90,NNW,338,5.0,14.0,54,0.00,,---,0.00,VWS V14.01,2013-07-20 22:40:00,
2013-07-20 18:45:00,66.3,48.2,29.90,North,360,5.0,14.0,52,0.00,,---,0.00,VWS V14.01,2013-07-20 22:45:00,
2013-07-20 18:50:00,66.0,48.4,29.90,North,10,7.0,9.0,53,0.00,,---,0.00,VWS V14.01,2013-07-20 22:50:00,
2013-07-20 18:55:00,66.1,49.0,29.90,NNE,25,10.0,10.0,54,0.00,,---,0.00,VWS V14.01,2013-07-20 22:55:00,
2013-07-20 19:00:00,65.9,49.3,29.90,North,360,9.0,9.0,55,0.00,,---,0.00,VWS V14.01,2013-07-20 23:00:00,
2013-07-20 19:05:00,65.6,48.5,29.90,North,360,6.0,13.0,54,0.00,,---,0.00,VWS V14.01,2013-07-20 23:05:00,
2013-07-20 19:10:00,65.4,47.8,29.90,NNE,24,2.0,13.0,53,0.00,,---,0.00,VWS V14.01,2013-07-20 23:10:00,
2013-07-20 19:15:00,65.5,48.9,29.90,NNW,331,6.0,10.0,55,0.00,,---,0.00,VWS V14.01,2013-07-20 23:15:00,
2013-07-20 19:20:00,65.3,48.2,29.90,NNE,14,7.0,7.0,54,0.00,,---,0.00,VWS V14.01,2013-07-20 23:20:00,
2013-07-20 19:25:00,65.1,48.5,29.90,NNE,28,4.0,15.0,55,0.00,,---,0.00,VWS V14.01,2013-07-20 23:25:00,
2013-07-20 19:30:00,65.0,49.4,29.90,NW,321,1.0,11.0,57,0.00,,---,0.00,VWS V14.01,2013-07-20 23:30:00,
2013-07-20 19:35:00,64.9,47.9,29.90,North,11,11.0,11.0,54,0.00,,---,0.00,VWS V14.01,2013-07-20 23:35:00,
2013-07-20 19:41:00,64.6,47.6,29.89,North,10,4.0,10.0,54,0.00,,---,0.00,VWS V14.01,2013-07-20 23:41:00,
2013-07-20 19:46:00,64.5,48.0,29.89,North,355,6.0,14.0,55,0.00,,---,0.00,VWS V14.01,2013-07-20 23:46:00,
2013-07-20 19:51:00,64.4,48.4,29.89,NNE,14,4.0,11.0,56,0.00,,---,0.00,VWS V14.01,2013-07-20 23:51:00,
2013-07-20 19:56:00,64.2,47.7,29.90,North,9,4.0,7.0,55,0.00,,---,0.00,VWS V14.01,2013-07-20 23:56:00,
2013-07-20 20:01:00,64.1,48.6,29.90,NNE,18,7.0,10.0,57,0.00,,---,0.00,VWS V14.01,2013-07-21 00:01:00,
2013-07-20 20:06:00,64.0,48.0,29.90,North,360,5.0,9.0,56,0.00,,---,0.00,VWS V14.01,2013-07-21 00:06:00,
2013-07-20 20:12:00,63.9,47.9,29.90,North,360,2.0,9.0,56,0.00,,---,0.00,VWS V14.01,2013-07-21 00:12:00,
2013-07-20 20:17:00,63.8,47.8,29.91,NNE,28,2.0,5.0,56,0.00,,---,0.00,VWS V14.01,2013-07-21 00:17:00,
2013-07-20 20:22:00,63.6,48.1,29.91,North,360,4.0,14.0,57,0.00,,---,0.00,VWS V14.01,2013-07-21 00:22:00,
2013-07-20 20:27:00,63.4,47.9,29.90,North,9,12.0,12.0,57,0.00,,---,0.00,VWS V14.01,2013-07-21 00:27:00,
2013-07-20 20:32:00,63.2,48.2,29.91,North,5,5.0,9.0,58,0.00,,---,0.00,VWS V14.01,2013-07-21 00:32:00,
2013-07-20 20:37:00,63.0,48.5,29.91,NNE,15,5.0,10.0,59,0.00,,---,0.00,VWS V14.01,2013-07-21 00:37:00,
2013-07-20 20:42:00,62.9,48.8,29.91,North,9,1.0,7.0,60,0.00,,---,0.00,VWS V14.01,2013-07-21 00:42:00,
2013-07-20 20:47:00,62.7,49.1,29.91,North,10,1.0,8.0,61,0.00,,---,0.00,VWS V14.01,2013-07-21 00:47:00,
2013-07-20 20:52:00,62.5,48.9,29.91,NNW,347,4.0,10.0,61,0.00,,---,0.00,VWS V14.01,2013-07-21 00:52:00,
2013-07-20 20:57:00,62.4,48.8,29.92,North,10,6.0,8.0,61,0.00,,---,0.00,VWS V14.01,2013-07-21 00:57:00,
2013-07-20 21:03:00,62.2,49.0,29.92,North,11,3.0,7.0,62,0.00,,---,0.00,VWS V14.01,2013-07-21 01:03:00,
2013-07-20 21:08:00,62.0,49.3,29.92,NNE,18,2.0,5.0,63,0.00,,---,0.00,VWS V14.01,2013-07-21 01:08:00,
2013-07-20 21:13:00,61.6,48.9,29.92,NNE,14,1.0,7.0,63,0.00,,---,0.00,VWS V14.01,2013-07-21 01:13:00,
2013-07-20 21:18:00,61.4,48.7,29.92,North,360,4.0,6.0,63,0.00,,---,0.00,VWS V14.01,2013-07-21 01:18:00,
2013-07-20 21:23:00,61.4,48.7,29.92,North,9,3.0,6.0,63,0.00,,---,0.00,VWS V14.01,2013-07-21 01:23:00,
2013-07-20 21:28:00,61.2,48.5,29.92,North,11,2.0,5.0,63,0.00,,---,0.00,VWS V14.01,2013-07-21 01:28:00,
2013-07-20 21:33:00,60.6,48.8,29.92,North,10,5.0,7.0,65,0.00,,---,0.00,VWS V14.01,2013-07-21 01:33:00,
2013-07-20 21:38:00,60.4,48.6,29.93,NNE,13,4.0,6.0,65,0.00,,---,0.00,VWS V14.01,2013-07-21 01:38:00,
2013-07-20 21:43:00,60.5,49.1,29.93,NNE,21,5.0,6.0,66,0.00,,---,0.00,VWS V14.01,2013-07-21 01:43:00,
2013-07-20 21:48:00,60.4,49.4,29.94,NNE,15,3.0,4.0,67,0.00,,---,0.00,VWS V14.01,2013-07-21 01:48:00,
2013-07-20 21:54:00,60.4,49.4,29.94,NNE,18,0.0,6.0,67,0.00,,---,0.00,VWS V14.01,2013-07-21 01:54:00,
2013-07-20 21:59:00,60.4,49.8,29.94,NNW,346,3.0,7.0,68,0.00,,---,0.00,VWS V14.01,2013-07-21 01:59:00,
2013-07-20 22:04:00,60.3,49.7,29.94,NNE,14,1.0,7.0,68,0.00,,---,0.00,VWS V14.01,2013-07-21 02:04:00,
2013-07-20 22:09:00,60.1,49.5,29.94,North,9,3.0,4.0,68,0.00,,---,0.00,VWS V14.01,2013-07-21 02:09:00,
2013-07-20 22:15:00,59.9,49.3,29.94,North,11,0.0,5.0,68,0.00,,---,0.00,VWS V14.01,2013-07-21 02:15:00,
2013-07-20 22:20:00,59.8,49.2,29.94,North,360,0.0,5.0,68,0.00,,---,0.00,VWS V14.01,2013-07-21 02:20:00,
2013-07-20 22:25:00,59.6,49.0,29.94,NNE,14,4.0,5.0,68,0.00,,---,0.00,VWS V14.01,2013-07-21 02:25:00,
2013-07-20 22:30:00,59.0,48.9,29.94,NNE,13,3.0,3.0,69,0.00,,---,0.00,VWS V14.01,2013-07-21 02:30:00,
2013-07-20 22:35:00,59.0,48.9,29.95,NNE,15,5.0,5.0,69,0.00,,---,0.00,VWS V14.01,2013-07-21 02:35:00,
2013-07-20 22:40:00,59.0,48.9,29.95,North,11,5.0,5.0,69,0.00,,---,0.00,VWS V14.01,2013-07-21 02:40:00,
2013-07-20 22:45:00,58.8,49.0,29.94,North,11,4.0,6.0,70,0.00,,---,0.00,VWS V14.01,2013-07-21 02:45:00,
2013-07-20 22:51:00,58.9,49.2,29.94,North,10,4.0,5.0,70,0.00,,---,0.00,VWS V14.01,2013-07-21 02:51:00,
2013-07-20 22:56:00,58.9,50.3,29.95,North,11,3.0,4.0,73,0.00,,---,0.00,VWS V14.01,2013-07-21 02:56:00,
2013-07-20 23:01:00,58.6,49.6,29.95,North,11,4.0,6.0,72,0.00,,---,0.00,VWS V14.01,2013-07-21 03:01:00,
2013-07-20 23:06:00,58.4,49.4,29.95,North,10,3.0,5.0,72,0.00,,---,0.00,VWS V14.01,2013-07-21 03:06:00,
2013-07-20 23:11:00,58.4,49.8,29.95,North,11,0.0,2.0,73,0.00,,---,0.00,VWS V14.01,2013-07-21 03:11:00,
2013-07-20 23:16:00,58.8,50.2,29.96,NNE,17,2.0,3.0,73,0.00,,---,0.00,VWS V14.01,2013-07-21 03:16:00,
2013-07-20 23:21:00,58.7,50.1,29.96,North,9,0.0,0.0,73,0.00,,---,0.00,VWS V14.01,2013-07-21 03:21:00,
2013-07-20 23:26:00,58.6,50.0,29.96,North,10,1.0,3.0,73,0.00,,---,0.00,VWS V14.01,2013-07-21 03:26:00,
2013-07-20 23:32:00,58.4,49.8,29.97,NNE,13,1.0,3.0,73,0.00,,---,0.00,VWS V14.01,2013-07-21 03:32:00,
2013-07-20 23:37:00,58.3,50.1,29.97,NNE,13,0.0,0.0,74,0.00,,---,0.00,VWS V14.01,2013-07-21 03:37:00,
2013-07-20 23:42:00,58.1,50.6,29.97,NNE,13,0.0,0.0,76,0.00,,---,0.00,VWS V14.01,2013-07-21 03:42:00,
2013-07-20 23:47:00,57.9,49.7,29.97,NNE,13,0.0,2.0,74,0.00,,---,0.00,VWS V14.01,2013-07-21 03:47:00,
2013-07-20 23:52:00,58.0,49.8,29.97,NNE,13,4.0,4.0,74,0.00,,---,0.00,VWS V14.01,2013-07-21 03:52:00,
2013-07-20 23:57:00,58.1,50.6,29.97,NNE,13,0.0,0.0,76,0.00,,---,0.00,VWS V14.01,2013-07-21 03:57:00,